Tracking 31027 objects as of 19-Jul-2025
HD Live streaming from Space Station
objects crossing your sky now

SL-8 DEB

Track SL-8 DEB now!
10-day predictions


NORAD ID: 21211
Int'l Code: 1991-009BE
Perigee: 1,440.7 km
Apogee: 1,760.6 km
Inclination: 74.1 °
Period: 118.1 minutes
Semi major axis: 7971 km
RCS: 0.0855 m2 (small)
Launch date: February 12, 1991
Source: Commonwealth of Independent States (former USSR) (CIS)
Launch site: PLESETSK MISSILE AND SPACE COMPLEX (PKMTR)

Note: This is SATELLITE DEBRIS
Your satellite tracking list
Your tracking list is empty




NASA's NSSDC Master Catalog

Two Line Element Set (TLE):
1 21211U 91009BE  25199.36152176 -.00000091  00000-0 -69928-3 0  9992
2 21211  74.0982 325.6062 0200673 348.0697  75.6261 12.19775018526526
Source of the keplerian elements: AFSPC